Wind_Speed
32 30 35 33 33 37 39 37 41 40 40 41 42 44 44 43 43 43 47 50 53 58 61 69 75 78 75 72 63 53 44 37 28 24 23 22 25 39 55 57 64 73 72 76
35 34 36 39 42 45 40 43 42 44 43 44 41 43 44 41 41 42 46 48 50 55 59 69 73 76 77 72 60 50 44 41 33 26 23 18 18 30 45 52 56 65 74 79
38 39 40 43 47 49 47 49 48 50 42 43 44 46 43 40 41 40 44 47 49 53 58 67 72 77 75 67 61 51 43 40 34 28 22 16 13 20 39 48 52 59 69 78
42 40 43 45 49 51 52 51 53 51 40 43 43 45 43 40 39 38 42 45 46 50 56 65 71 74 69 66 61 52 44 39 35 27 23 16 10 15 32 45 53 58 64 72
45 45 44 46 51 53 55 53 56 48 40 40 43 45 44 41 38 36 40 43 44 47 54 61 69 69 71 64 59 52 45 36 30 28 24 16 6 14 29 40 48 57 63 71
48 48 50 51 56 57 56 55 57 45 41 40 43 43 43 40 36 34 38 40 40 44 51 57 65 67 63 62 59 53 46 37 30 29 24 17 4 14 26 35 43 50 57 66
51 52 53 55 59 57 55 54 55 44 42 40 43 42 40 38 35 36 36 37 38 41 47 52 61 63 62 62 58 50 44 38 31 28 21 16 6 13 26 36 44 49 54 62
55 56 58 56 57 56 54 55 53 41 41 42 40 40 38 36 35 35 34 34 35 37 43 48 55 59 59 57 52 50 42 42 30 26 21 15 9 13 26 30 39 49 55 65
61 61 63 59 56 56 56 54 47 41 40 42 40 40 32 32 34 33 32 32 33 33 38 43 49 54 56 57 49 51 45 42 37 24 21 16 14 18 21 19 27 42 57 71
65 65 63 57 54 56 56 52 45 42 41 41 43 40 35 31 33 32 31 30 31 30 34 38 43 48 52 53 49 50 48 41 39 34 23 18 18 20 22 20 17 19 38 56
67 64 60 59 55 55 58 52 43 41 37 36 41 39 32 30 30 32 32 31 29 28 30 33 38 41 47 49 49 51 50 42 38 36 33 25 17 15 17 20 21 18 24 52
68 64 61 53 51 51 55 54 45 44 41 37 37 41 32 29 31 31 31 33 28 25 27 30 32 35 40 43 45 49 46 47 41 34 29 30 30 23 18 13 17 17 17 26
67 63 60 57 53 53 51 53 46 43 40 38 37 37 32 32 33 29 28 31 29 26 24 26 27 30 34 38 38 43 46 48 44 35 30 24 25 25 26 21 16 14 16 25
67 62 57 56 54 53 50 49 47 46 44 37 38 38 31 33 30 26 27 29 32 27 22 22 24 26 30 31 34 34 40 43 43 41 34 27 20 19 20 20 16 16 13 11
64 56 54 54 57 54 50 51 47 49 44 38 40 37 33 31 31 25 27 27 30 27 26 19 22 21 24 27 28 30 33 34 40 40 40 32 26 16 10 9 12 11 11 10
61 52 53 53 55 54 52 54 52 48 43 40 39 38 31 34 33 27 26 26 28 30 27 23 20 21 19 22 23 25 27 29 31 34 35 38 34 28 20 4 2 4 3 4
63 56 54 53 57 57 54 57 51 47 42 38 39 39 33 35 33 30 25 25 27 28 29 27 23 20 20 18 20 20 22 22 27 26 27 30 30 35 32 23 10 6 11 8
58 62 59 59 58 53 49 54 53 47 45 41 38 38 36 34 34 26 25 25 24 25 28 29 27 24 21 21 19 18 19 21 21 24 24 23 23 25 26 28 28 21 9 13
55 57 56 57 53 52 48 54 52 49 50 44 40 38 37 34 34 29 25 24 25 24 26 28 28 27 24 22 20 19 18 19 22 21 20 21 21 18 17 21 21 19 17 15
58 52 54 55 55 52 52 53 52 49 50 47 40 39 39 35 34 30 28 26 24 24 25 26 27 28 26 26 21 20 21 20 20 21 20 19 18 19 18 13 11 10 14 11
66 62 57 62 54 43 41 51 50 45 51 46 43 40 40 40 37 33 30 30 27 27 27 24 25 26 24 25 25 24 22 23 21 22 22 21 19 17 18 20 19 14 9 6
70 69 63 59 51 37 41 49 47 47 47 45 42 39 40 40 38 35 33 32 30 31 32 28 24 25 24 24 23 22 27 24 25 24 23 23 23 20 18 19 21 22 23 18
72 65 64 68 54 46 42 39 48 47 46 46 44 42 42 41 39 38 35 34 33 33 33 31 27 27 29 28 22 23 24 25 27 29 29 27 26 24 23 24 27 24 23 26
67 71 69 65 57 59 55 34 47 50 41 42 45 46 47 47 46 43 39 38 36 35 37 36 34 33 34 36 31 27 28 31 29 28 31 32 30 30 28 29 30 27 28 28
64 68 78 70 70 64 61 42 46 43 37 36 44 46 43 44 45 42 42 40 39 42 43 43 42 39 38 35 33 35 34 35 36 34 33 36 35 32 32 32 32 34 36 36
77 74 74 66 72 73 68 56 46 52 52 43 33 47 47 47 48 48 47 47 44 42 44 43 42 40 40 39 41 39 37 39 38 39 38 38 38 40 38 40 40 40 40 40
Wind_Direction
314 317 323 328 321 320 317 310 312 314 314 313 312 314 315 312 312 314 319 325 328 329 334 334 339 346 344 345 346 342 337 329 321 305 299 296 268 236 230 229 222 217 215 214
310 317 318 317 320 321 322 319 310 313 311 313 314 314 317 310 310 313 319 325 328 331 334 335 340 345 345 345 349 343 342 339 330 323 313 305 275 237 229 227 221 218 212 208
306 311 312 314 316 317 320 322 322 321 310 311 312 312 315 309 309 313 320 325 328 332 336 336 342 349 347 348 352 348 343 342 338 332 330 319 288 240 222 219 215 212 208 201
302 305 308 313 314 315 319 321 324 329 311 309 308 310 315 308 309 314 320 323 328 333 337 340 343 347 351 348 353 354 349 345 345 343 342 342 312 235 218 213 210 205 203 201
301 301 304 308 312 313 318 317 323 326 307 308 308 310 314 306 308 314 318 323 330 333 337 342 345 351 357 350 355 357 354 354 354 353 360 359 340 205 206 207 205 200 200 198
297 300 303 305 308 310 312 314 318 316 305 305 310 312 314 307 308 312 315 321 329 332 337 343 346 354 8 354 358 0 358 3 4 1 3 11 25 186 202 198 199 197 197 190
294 297 300 303 306 307 308 310 316 310 303 302 308 314 317 310 305 308 312 318 327 331 338 344 347 356 360 359 6 3 4 9 10 11 15 20 57 166 185 184 184 183 185 190
290 292 296 299 301 302 303 306 314 302 300 305 309 319 315 308 304 306 310 314 323 331 338 345 349 359 2 4 9 10 13 9 18 23 32 48 78 145 172 183 184 182 180 180
286 289 293 296 296 298 298 304 311 295 296 301 308 316 317 307 303 304 309 310 318 328 336 343 350 355 4 14 10 15 13 19 22 33 38 65 101 132 138 158 181 187 184 181
283 286 289 291 291 291 294 301 307 292 294 298 302 313 321 306 305 305 304 306 312 325 332 342 349 357 1 8 16 21 19 22 28 36 52 62 98 117 118 127 133 176 191 190
281 284 283 285 287 285 290 298 303 289 293 297 299 306 318 304 303 303 303 305 306 321 328 340 347 358 1 9 14 16 25 23 27 32 40 54 65 85 109 122 133 145 173 192
280 282 282 282 284 285 285 290 300 291 294 294 299 301 316 312 302 304 304 304 301 315 324 336 342 355 5 9 15 22 26 28 25 27 35 41 55 65 72 97 118 130 165 189
277 282 279 279 282 280 283 286 295 295 295 293 296 299 306 306 306 304 305 307 299 305 317 329 336 346 0 10 17 18 30 26 28 26 30 40 48 60 70 75 102 129 144 186
277 279 276 279 278 279 280 286 288 296 287 294 287 295 300 302 309 304 301 304 303 296 308 321 326 337 352 9 10 20 29 38 32 30 36 33 38 41 58 72 75 103 127 146
274 276 274 274 277 278 279 283 287 292 283 284 286 286 299 294 306 306 301 299 303 295 300 311 314 328 340 356 8 10 20 33 41 47 36 42 40 46 50 37 69 88 86 75
277 274 273 276 276 276 279 282 282 288 280 277 281 281 290 291 297 301 300 295 297 297 295 297 306 311 326 336 357 7 8 23 36 48 49 41 43 45 42 46 219 75 95 135
271 269 270 271 276 279 280 280 282 285 275 272 274 280 283 285 288 300 295 289 295 297 302 292 297 300 308 317 333 352 0 5 16 34 49 53 49 46 46 49 44 226 217 197
263 266 262 265 272 273 275 276 279 281 274 269 270 274 278 279 283 286 289 288 293 297 297 299 297 298 297 301 309 328 342 352 354 5 18 36 53 51 59 42 37 42 50 228
271 263 261 262 265 269 279 277 271 271 270 266 267 273 272 273 277 281 281 286 286 290 292 297 302 299 294 293 294 302 317 327 337 347 352 2 14 30 54 75 68 51 40 21
263 256 263 264 274 276 275 271 273 272 264 266 262 265 266 265 269 277 278 276 280 282 283 289 296 299 296 293 293 291 296 305 312 325 333 339 347 352 8 29 62 77 92 96
258 267 267 277 278 270 267 267 268 265 258 264 260 263 265 265 270 273 270 270 275 272 280 281 284 292 296 297 300 293 291 293 301 301 311 317 318 327 336 342 347 354 5 17
255 266 271 279 278 266 261 267 262 262 259 260 258 258 261 262 267 266 264 267 270 269 273 272 278 279 283 286 284 288 293 289 286 292 298 294 302 305 310 320 324 332 327 327
261 263 272 280 280 272 276 270 256 253 253 256 255 255 255 257 261 265 262 263 265 266 268 271 269 275 278 280 283 279 284 286 290 286 286 292 286 282 286 294 303 309 319 315
260 270 276 273 280 283 282 271 248 248 255 260 259 255 250 252 257 260 264 262 259 260 262 264 264 267 272 272 275 280 282 281 281 284 282 282 282 283 277 285 293 295 297 302
258 262 277 270 278 281 277 271 241 257 281 265 258 259 260 257 256 259 261 261 258 257 259 261 264 265 268 266 266 272 273 276 276 280 281 281 278 278 277 283 282 285 291 294
262 264 268 260 264 274 275 279 256 257 271 280 277 262 262 258 256 257 257 259 259 256 256 260 261 265 262 265 264 269 268 270 274 279 274 279 276 275 280 275 278 281 283 289
Height
10738 10735 10732 10730 10727 10723 10719 10716 10711 10705 10700 10695 10690 10686 10680 10673 10667 10660 10651 10643 10631 10620 10607 10593 10579 10565 10542 10525 10509 10492 10479 10469 10460 10453 10447 10440 10436 10438 10442 10451 10465 10480 10500 10521
10731 10728 10726 10724 10721 10718 10714 10710 10705 10699 10695 10688 10685 10679 10673 10668 10661 10654 10647 10638 10627 10617 10604 10589 10576 10562 10539 10520 10505 10489 10476 10465 10455 10448 10441 10435 10430 10429 10434 10442 10456 10471 10488 10508
10724 10721 10720 10717 10714 10711 10708 10704 10698 10691 10686 10681 10677 10671 10668 10662 10656 10649 10642 10634 10625 10616 10602 10586 10573 10558 10539 10520 10502 10484 10472 10462 10452 10444 10437 10430 10426 10426 10428 10436 10449 10463 10480 10499
10716 10714 10712 10709 10706 10703 10701 10696 10690 10684 10679 10674 10671 10665 10661 10656 10651 10645 10638 10630 10622 10613 10600 10584 10571 10555 10540 10519 10502 10485 10471 10460 10449 10441 10435 10429 10425 10423 10427 10433 10443 10457 10473 10489
10708 10705 10704 10702 10699 10696 10693 10689 10684 10678 10673 10668 10664 10660 10654 10649 10646 10640 10635 10626 10618 10609 10598 10585 10571 10555 10542 10521 10502 10486 10473 10461 10450 10441 10436 10429 10426 10425 10428 10433 10442 10454 10467 10483
10698 10697 10696 10694 10692 10689 10685 10682 10677 10672 10667 10662 10658 10654 10649 10644 10641 10636 10630 10622 10616 10608 10598 10586 10571 10555 10543 10523 10505 10488 10476 10463 10453 10445 10438 10433 10428 10429 10433 10436 10446 10459 10471 10485
10689 10688 10687 10685 10684 10680 10677 10675 10671 10665 10661 10657 10653 10648 10644 10639 10636 10632 10627 10620 10614 10605 10597 10587 10570 10558 10546 10528 10511 10494 10481 10470 10459 10450 10443 10438 10434 10434 10437 10440 10448 10461 10474 10485
10680 10679 10679 10677 10675 10672 10669 10666 10663 10659 10654 10650 10648 10644 10638 10635 10632 10628 10623 10618 10611 10604 10596 10586 10573 10559 10547 10535 10519 10503 10489 10478 10466 10457 10450 10445 10442 10442 10445 10447 10453 10460 10471 10489
10669 10669 10669 10669 10666 10664 10660 10658 10655 10652 10648 10644 10641 10639 10635 10632 10628 10624 10620 10616 10609 10603 10595 10586 10576 10562 10551 10543 10525 10510 10496 10484 10475 10467 10460 10454 10451 10452 10456 10461 10466 10468 10474 10481
10659 10659 10658 10658 10658 10655 10652 10650 10647 10645 10643 10639 10636 10634 10630 10627 10624 10621 10616 10612 10607 10601 10594 10587 10577 10566 10554 10544 10535 10519 10504 10492 10483 10475 10470 10466 10461 10458 10461 10466 10473 10478 10486 10493
10646 10648 10647 10647 10648 10646 10644 10642 10639 10636 10635 10633 10628 10628 10626 10622 10619 10616 10613 10608 10605 10600 10593 10586 10578 10570 10559 10546 10539 10527 10513 10502 10493 10485 10478 10473 10472 10470 10470 10470 10474 10480 10488 10499
10632 10634 10634 10637 10637 10637 10635 10633 10631 10627 10626 10626 10623 10620 10621 10617 10613 10612 10609 10605 10602 10599 10592 10586 10579 10572 10564 10554 10542 10535 10522 10512 10502 10496 10490 10484 10481 10479 10479 10480 10482 10485 10490 10497
10618 10621 10622 10623 10626 10625 10625 10624 10622 10619 10618 10617 10615 10615 10615 10611 10608 10607 10605 10602 10598 10596 10591 10585 10580 10573 10567 10559 10549 10538 10532 10519 10513 10504 10498 10495 10491 10489 10488 10489 10489 10491 10495 10499
10604 10607 10609 10611 10612 10612 10613 10612 10612 10611 10609 10611 10606 10605 10611 10602 10603 10602 10600 10598 10594 10592 10590 10585 10580 10574 10569 10563 10556 10547 10537 10530 10522 10515 10507 10501 10499 10497 10496 10496 10497 10499 10501 10503
10590 10593 10595 10598 10599 10600 10601 10600 10602 10601 10601 10602 10597 10597 10604 10597 10597 10597 10594 10592 10590 10588 10587 10584 10579 10575 10570 10565 10559 10553 10546 10538 10530 10527 10519 10513 10507 10506 10504 10503 10502 10504 10506 10507
10577 10581 10583 10586 10587 10588 10589 10588 10590 10591 10590 10592 10591 10588 10595 10592 10590 10591 10588 10586 10586 10584 10583 10581 10578 10574 10570 10566 10561 10556 10551 10546 10539 10533 10528 10523 10518 10514 10511 10510 10510 10510 10510 10512
10564 10567 10570 10575 10573 10576 10579 10572 10579 10580 10580 10582 10580 10580 10584 10584 10582 10584 10582 10580 10580 10580 10578 10577 10576 10572 10569 10565 10562 10558 10554 10550 10547 10541 10535 10529 10525 10522 10517 10515 10513 10514 10517 10519
10552 10554 10557 10562 10561 10566 10564 10561 10565 10569 10568 10571 10572 10571 10573 10575 10576 10576 10576 10575 10575 10574 10572 10573 10572 10570 10567 10564 10561 10558 10555 10552 10548 10545 10541 10537 10533 10530 10525 10522 10519 10518 10518 10519
10537 10540 10542 10545 10550 10555 10554 10545 10552 10555 10554 10561 10563 10564 10565 10565 10567 10569 10569 10569 10569 10568 10567 10566 10566 10566 10564 10562 10559 10556 10554 10552 10549 10546 10543 10541 10538 10535 10532 10529 10526 10526 10523 10520
10522 10524 10528 10534 10537 10542 10541 10529 10536 10543 10543 10549 10553 10554 10555 10556 10557 10560 10561 10562 10563 10562 10561 10560 10560 10560 10559 10557 10557 10555 10552 10550 10548 10546 10544 10541 10539 10537 10535 10533 10531 10529 10527 10526
10505 10508 10514 10516 10523 10531 10529 10515 10522 10529 10528 10537 10541 10544 10546 10546 10547 10550 10551 10552 10554 10554 10554 10554 10553 10553 10553 10552 10551 10551 10550 10548 10546 10544 10542 10540 10538 10536 10533 10531 10531 10530 10529 10527
10489 10490 10497 10504 10509 10518 10509 10508 10510 10513 10519 10524 10530 10533 10536 10537 10537 10539 10541 10543 10545 10546 10546 10546 10546 10547 10546 10546 10545 10544 10544 10544 10542 10541 10539 10537 10535 10533 10531 10530 10528 10526 10525 10524
10470 10475 10479 10483 10496 10497 10502 10500 10500 10503 10508 10513 10518 10522 10524 10526 10527 10529 10531 10533 10536 10537 10538 10538 10538 10538 10538 10538 10538 10538 10537 10536 10536 10536 10534 10532 10531 10529 10527 10526 10524 10522 10521 10519
10452 10458 10461 10468 10478 10480 10482 10489 10489 10492 10500 10504 10505 10507 10509 10513 10515 10518 10521 10523 10525 10527 10528 10529 10529 10529 10529 10529 10529 10529 10529 10529 10528 10527 10526 10525 10524 10522 10521 10520 10518 10517 10516 10514
10433 10437 10448 10455 10461 10461 10463 10473 10479 10487 10489 10491 10493 10495 10498 10499 10503 10505 10508 10511 10513 10515 10516 10517 10518 10520 10520 10519 10518 10519 10519 10519 10518 10518 10518 10516 10516 10515 10513 10511 10510 10508 10507 10505
10420 10426 10429 10437 10433 10445 10448 10457 10468 10473 10471 10476 10483 10484 10485 10487 10490 10492 10495 10497 10499 10502 10503 10505 10506 10508 10509 10508 10508 10507 10508 10508 10508 10508 10508 10507 10506 10505 10504 10502 10501 10499 10497 10496